Temp
35 35 36 36 37 37 37 37 37 37 37 38 37 38 38 39 38 37 37 37 37 37 37 37 37 37 37 37 37 37 37 36 37 37 36 36 35 35 35 35 35 36
33 33 34 35 35 36 36 36 36 36 37 37 37 38 38 37 38 37 37 36 36 36 37 37 37 37 36 36 36 36 36 36 35 36 35 35 35 35 34 35 35 35
32 32 32 32 32 33 34 35 35 35 36 36 36 36 36 37 37 37 37 36 36 36 36 36 36 36 36 36 36 36 35 35 35 36 35 35 35 35 35 35 35 34
31 31 31 31 32 32 32 33 33 34 34 34 35 36 36 36 37 36 36 35 36 36 36 36 35 36 36 35 35 35 35 35 35 36 35 35 35 35 34 35 34 34
30 30 31 31 31 32 32 31 31 32 32 33 34 35 35 35 35 36 36 35 35 35 35 35 35 35 35 35 35 34 34 34 35 35 34 33 34 34 34 34 33 32
30 30 30 30 30 31 30 30 30 30 31 31 32 33 33 34 34 34 35 35 35 35 35 35 35 34 35 35 35 34 34 34 35 34 33 33 34 35 34 33 33 32
28 29 28 29 29 30 29 29 29 30 30 30 31 31 31 31 32 33 34 34 34 34 34 34 34 34 34 34 34 34 34 34 34 34 33 33 34 33 34 33 32 31
27 27 28 28 27 28 27 28 28 28 29 29 29 30 30 30 30 31 31 32 32 33 34 34 34 34 34 34 33 33 33 33 33 33 32 32 33 32 33 33 32 30
26 25 26 26 25 26 25 26 26 27 28 27 27 28 28 29 29 29 29 30 30 31 32 33 33 33 34 33 33 32 32 33 33 32 32 32 31 31 32 32 31 29
23 24 23 23 23 24 23 24 24 25 26 25 26 26 26 27 28 27 27 28 28 29 29 30 31 32 33 33 32 33 32 32 32 32 32 32 31 31 31 31 29 29
22 22 22 22 22 22 22 23 23 23 24 23 24 24 25 25 26 26 26 26 26 26 27 28 28 29 30 31 32 33 32 32 31 30 31 30 30 31 30 30 29 29
20 20 20 20 20 20 21 21 21 21 22 22 23 22 23 23 23 23 24 24 25 25 26 26 27 27 27 28 28 29 30 31 30 30 30 30 30 30 30 30 29 29
19 19 19 19 19 19 20 20 20 20 20 20 21 20 20 20 21 22 22 23 23 24 24 24 24 25 25 25 25 26 26 26 27 28 29 29 29 30 30 30 29 29
17 18 18 18 18 19 19 19 18 18 18 19 19 18 18 19 19 20 21 22 22 22 22 23 23 23 23 23 24 25 25 26 26 26 27 27 28 29 29 29 29 29
16 17 17 17 17 17 17 17 17 17 17 17 17 17 17 18 18 19 18 18 20 20 19 20 20 20 21 22 24 25 26 26 26 25 25 25 26 26 27 27 27 28
15 15 15 15 15 15 16 16 15 15 15 15 15 15 16 17 17 17 17 16 16 16 17 17 18 18 20 24 26 26 26 26 26 25 25 25 25 25 25 26 26 27
13 13 13 12 14 14 15 14 14 13 13 13 13 14 14 14 15 14 14 15 14 14 14 15 16 16 21 25 27 27 26 26 25 25 25 25 25 24 24 25 25 25
11 11 10 11 12 13 13 13 12 12 11 11 11 11 12 13 12 13 13 13 13 12 12 13 13 16 23 25 26 27 27 26 25 23 23 23 23 23 23 24 24 24
10 9 9 9 10 11 12 12 9 9 8 8 8 10 10 9 10 10 10 11 10 9 10 11 11 15 22 24 25 26 27 23 20 20 21 20 20 20 20 21 21 22
9 8 7 8 9 10 10 9 7 7 7 7 8 8 8 8 8 9 9 8 8 7 8 9 8 14 21 23 24 25 25 21 18 17 17 18 17 17 17 18 19 19
7 6 5 6 8 8 8 7 6 5 6 7 7 7 6 6 6 6 6 6 6 6 6 7 7 16 20 21 23 24 24 19 17 15 16 16 16 16 16 16 17 17
5 5 5 4 6 6 5 5 4 4 4 6 6 6 6 6 6 6 5 4 5 4 4 4 7 14 17 20 21 22 23 17 16 14 14 14 15 15 15 16 16 16
4 3 3 3 4 4 3 3 2 2 3 5 3 4 4 4 4 4 4 3 3 4 2 4 4 9 15 18 20 21 20 17 15 14 13 12 13 14 15 15 15 16
4 2 1 2 2 1 1 1 2 2 2 4 2 2 2 2 3 3 3 3 2 2 3 4 3 6 13 17 19 20 19 16 14 13 11 12 12 12 14 14 14 15
2 2 1 0 -0 0 -0 -1 0 0 1 2 1 1 0 2 2 1 1 2 2 1 5 3 1 4 11 16 18 19 17 16 14 12 10 10 12 12 13 12 12 13
2 1 0 -1 -1 -1 -1 -1 -0 -1 -1 -1 -1 -0 -0 0 0 -0 -1 0 1 1 0 0 0 2 6 15 16 17 18 15 14 12 10 10 11 10 9 10 10 10
MSLP
1020.00 1019.88 1019.72 1019.52 1019.44 1019.40 1019.32 1019.28 1019.28 1019.32 1019.36 1019.44 1019.44 1019.32 1019.40 1019.28 1019.44 1019.52 1019.52 1019.60 1019.64 1019.64 1019.68 1019.80 1019.88 1020.08 1020.24 1020.44 1020.60 1020.80 1020.88 1020.96 1021.08 1021.20 1021.44 1021.56 1021.64 1021.80 1021.88 1021.92 1022.08 1022.00
1020.72 1020.48 1020.20 1020.00 1019.76 1019.60 1019.48 1019.40 1019.32 1019.32 1019.20 1019.24 1019.24 1019.28 1019.28 1019.28 1019.24 1019.28 1019.28 1019.32 1019.32 1019.28 1019.24 1019.32 1019.44 1019.56 1019.76 1019.96 1020.08 1020.28 1020.32 1020.40 1020.52 1020.64 1020.92 1021.00 1021.00 1021.24 1021.28 1021.36 1021.52 1021.52
1021.16 1020.88 1020.64 1020.48 1020.28 1020.04 1019.84 1019.64 1019.52 1019.44 1019.32 1019.24 1019.24 1019.24 1019.16 1019.16 1019.12 1019.12 1019.12 1019.08 1019.00 1018.92 1018.96 1018.96 1019.04 1019.12 1019.28 1019.40 1019.56 1019.76 1019.76 1019.84 1020.00 1020.08 1020.32 1020.24 1020.44 1020.60 1020.56 1020.88 1020.96 1021.04
1021.40 1021.28 1021.08 1020.84 1020.56 1020.36 1020.08 1019.84 1019.68 1019.56 1019.44 1019.32 1019.24 1019.16 1019.12 1019.00 1018.92 1018.92 1018.96 1019.00 1018.92 1018.72 1018.64 1018.68 1018.68 1018.76 1018.88 1018.96 1019.20 1019.20 1019.16 1019.28 1019.28 1019.60 1019.76 1019.72 1019.84 1020.00 1020.08 1020.28 1020.40 1020.48
1021.80 1021.56 1021.40 1021.20 1020.96 1020.72 1020.44 1020.24 1020.08 1019.92 1019.76 1019.60 1019.40 1019.24 1019.12 1018.96 1018.80 1018.72 1018.72 1018.72 1018.72 1018.60 1018.48 1018.40 1018.40 1018.40 1018.52 1018.64 1018.76 1018.80 1018.76 1018.84 1018.92 1019.24 1019.28 1019.20 1019.20 1019.48 1019.48 1019.72 1019.84 1019.88
1022.08 1021.92 1021.76 1021.52 1021.32 1021.00 1020.84 1020.60 1020.48 1020.28 1020.12 1019.92 1019.72 1019.52 1019.28 1019.12 1018.92 1018.76 1018.64 1018.52 1018.40 1018.32 1018.20 1018.12 1018.04 1018.04 1018.16 1018.20 1018.32 1018.24 1018.24 1018.36 1018.40 1018.76 1018.76 1018.64 1018.68 1018.84 1018.96 1019.12 1019.28 1019.32
1022.52 1022.24 1022.08 1021.88 1021.68 1021.32 1021.24 1021.00 1020.88 1020.68 1020.48 1020.32 1019.96 1019.68 1019.48 1019.32 1019.12 1018.96 1018.72 1018.48 1018.28 1018.08 1017.96 1017.84 1017.72 1017.72 1017.76 1017.84 1017.84 1017.80 1017.80 1017.88 1018.00 1018.20 1018.20 1018.08 1018.16 1018.28 1018.40 1018.60 1018.72 1018.68
1022.88 1022.72 1022.60 1022.48 1022.36 1021.96 1021.88 1021.52 1021.32 1021.04 1020.80 1020.52 1020.24 1019.92 1019.68 1019.48 1019.28 1019.08 1018.88 1018.60 1018.32 1018.00 1017.76 1017.60 1017.52 1017.44 1017.44 1017.48 1017.48 1017.48 1017.48 1017.56 1017.64 1017.68 1017.68 1017.60 1017.68 1017.76 1017.76 1018.00 1018.12 1018.12
1023.48 1023.28 1023.12 1022.92 1022.76 1022.40 1022.20 1021.84 1021.56 1021.32 1021.04 1020.88 1020.56 1020.20 1019.96 1019.76 1019.52 1019.28 1019.04 1018.72 1018.40 1018.08 1017.76 1017.56 1017.36 1017.24 1017.16 1017.16 1017.12 1017.12 1017.12 1017.16 1017.20 1017.24 1017.20 1017.12 1017.24 1017.20 1017.24 1017.48 1017.60 1017.56
1023.80 1023.56 1023.32 1023.00 1022.84 1022.52 1022.32 1022.00 1021.88 1021.64 1021.40 1021.20 1020.84 1020.52 1020.24 1019.92 1019.72 1019.44 1019.16 1018.84 1018.52 1018.24 1018.04 1017.76 1017.52 1017.28 1017.08 1016.96 1016.88 1016.80 1016.80 1016.76 1016.76 1016.80 1016.76 1016.68 1016.68 1016.68 1016.80 1017.00 1017.04 1017.00
1024.04 1023.76 1023.56 1023.32 1023.20 1022.96 1022.76 1022.48 1022.28 1021.96 1021.68 1021.40 1021.00 1020.72 1020.44 1020.16 1019.92 1019.64 1019.40 1019.04 1018.76 1018.52 1018.24 1018.00 1017.80 1017.60 1017.36 1017.08 1016.84 1016.68 1016.56 1016.48 1016.44 1016.40 1016.32 1016.24 1016.20 1016.20 1016.28 1016.40 1016.48 1016.40
1024.32 1024.12 1023.88 1023.68 1023.52 1023.32 1023.08 1022.84 1022.56 1022.24 1021.92 1021.60 1021.28 1021.04 1020.76 1020.52 1020.28 1020.00 1019.72 1019.36 1019.12 1018.88 1018.64 1018.40 1018.12 1017.92 1017.68 1017.44 1017.20 1016.92 1016.68 1016.40 1016.24 1016.12 1016.00 1015.88 1015.80 1015.76 1015.76 1015.84 1015.88 1015.84
1024.60 1024.36 1024.08 1023.84 1023.60 1023.40 1023.16 1022.88 1022.64 1022.40 1022.12 1021.88 1021.56 1021.40 1021.12 1020.88 1020.64 1020.32 1020.04 1019.68 1019.40 1019.08 1018.88 1018.60 1018.36 1018.12 1017.92 1017.68 1017.44 1017.20 1016.96 1016.72 1016.40 1016.12 1015.88 1015.68 1015.48 1015.36 1015.32 1015.36 1015.36 1015.32
1024.92 1024.64 1024.36 1024.08 1023.88 1023.56 1023.28 1023.04 1022.80 1022.52 1022.28 1022.00 1021.76 1021.56 1021.32 1021.08 1020.80 1020.52 1020.20 1019.88 1019.60 1019.36 1019.12 1018.84 1018.60 1018.36 1018.08 1017.84 1017.52 1017.16 1016.84 1016.60 1016.36 1016.16 1015.92 1015.68 1015.44 1015.24 1015.12 1015.04 1015.00 1014.96
1025.16 1024.88 1024.60 1024.32 1024.08 1023.72 1023.40 1023.20 1023.00 1022.76 1022.48 1022.24 1021.96 1021.72 1021.48 1021.16 1020.88 1020.60 1020.32 1020.08 1019.84 1019.64 1019.40 1019.16 1018.88 1018.60 1018.28 1017.96 1017.44 1016.96 1016.64 1016.40 1016.20 1016.04 1015.88 1015.68 1015.44 1015.24 1015.08 1014.96 1014.88 1014.76
1025.40 1025.16 1024.88 1024.60 1024.32 1023.92 1023.64 1023.44 1023.28 1023.04 1022.80 1022.56 1022.24 1021.96 1021.64 1021.32 1021.00 1020.72 1020.44 1020.24 1020.00 1019.72 1019.48 1019.24 1019.00 1018.68 1018.36 1017.76 1017.20 1016.80 1016.48 1016.24 1016.04 1015.88 1015.68 1015.52 1015.36 1015.16 1015.00 1014.92 1014.80 1014.72
1025.52 1025.32 1025.08 1024.88 1024.44 1024.12 1023.80 1023.68 1023.48 1023.32 1023.08 1022.80 1022.48 1022.16 1021.80 1021.44 1021.12 1020.80 1020.56 1020.32 1020.16 1019.96 1019.72 1019.44 1019.16 1018.84 1018.24 1017.52 1017.04 1016.68 1016.40 1016.16 1015.92 1015.64 1015.48 1015.32 1015.16 1015.04 1014.92 1014.76 1014.60 1014.52
1025.60 1025.48 1025.32 1025.08 1024.68 1024.28 1024.00 1023.84 1023.80 1023.60 1023.40 1023.12 1022.84 1022.48 1022.12 1021.88 1021.60 1021.24 1021.08 1020.84 1020.68 1020.52 1020.28 1020.00 1019.64 1019.12 1018.28 1017.56 1017.08 1016.64 1016.28 1015.92 1015.76 1015.80 1015.68 1015.52 1015.32 1015.20 1014.96 1014.76 1014.60 1014.40
1025.68 1025.60 1025.44 1025.16 1024.84 1024.48 1024.12 1024.00 1024.00 1023.84 1023.64 1023.44 1023.20 1022.80 1022.56 1022.32 1021.96 1021.72 1021.48 1021.24 1021.12 1020.92 1020.64 1020.28 1020.00 1019.28 1018.32 1017.64 1017.08 1016.56 1016.20 1016.36 1016.48 1016.36 1016.08 1015.92 1015.84 1015.68 1015.44 1015.20 1014.88 1014.56
1025.72 1025.68 1025.56 1025.24 1024.88 1024.52 1024.24 1024.16 1024.16 1023.96 1023.76 1023.52 1023.24 1022.96 1022.76 1022.52 1022.20 1021.96 1021.72 1021.44 1021.28 1021.12 1020.80 1020.40 1020.08 1019.28 1018.32 1017.76 1017.20 1016.68 1016.36 1016.60 1016.84 1016.72 1016.60 1016.40 1016.28 1016.16 1015.96 1015.68 1015.36 1015.08
1025.76 1025.76 1025.60 1025.28 1024.92 1024.60 1024.36 1024.32 1024.24 1024.04 1023.80 1023.52 1023.28 1023.08 1022.88 1022.60 1022.32 1022.12 1021.80 1021.52 1021.24 1021.04 1020.80 1020.32 1019.96 1019.08 1018.36 1017.76 1017.28 1016.80 1016.48 1016.84 1016.96 1016.92 1016.84 1016.64 1016.52 1016.40 1016.24 1016.04 1015.80 1015.48
1025.84 1025.76 1025.56 1025.32 1025.00 1024.68 1024.56 1024.48 1024.24 1024.04 1023.80 1023.44 1023.20 1022.96 1022.68 1022.48 1022.24 1022.00 1021.80 1021.48 1021.16 1021.00 1020.80 1020.40 1019.96 1019.28 1018.64 1017.96 1017.44 1016.96 1016.60 1016.96 1016.96 1016.96 1016.96 1016.76 1016.60 1016.40 1016.28 1016.04 1015.84 1015.60
1025.88 1025.80 1025.60 1025.40 1025.08 1024.92 1024.76 1024.60 1024.36 1024.04 1023.72 1023.40 1023.28 1023.04 1022.72 1022.48 1022.24 1021.96 1021.76 1021.56 1021.24 1021.04 1020.92 1020.52 1020.28 1019.76 1019.00 1018.28 1017.68 1017.24 1016.88 1017.08 1017.12 1017.08 1017.04 1016.88 1016.64 1016.44 1016.20 1016.04 1015.92 1015.68
1025.92 1025.76 1025.68 1025.48 1025.28 1025.12 1024.96 1024.72 1024.48 1024.16 1023.88 1023.60 1023.56 1023.24 1022.96 1022.68 1022.40 1022.08 1021.84 1021.68 1021.48 1021.28 1021.08 1020.84 1020.60 1020.20 1019.36 1018.56 1017.92 1017.52 1017.24 1017.20 1017.24 1017.28 1017.24 1017.00 1016.68 1016.48 1016.28 1016.20 1016.12 1015.88
1025.88 1025.76 1025.64 1025.52 1025.36 1025.16 1025.04 1024.92 1024.60 1024.36 1024.04 1023.80 1023.68 1023.48 1023.20 1022.84 1022.48 1022.28 1022.04 1021.76 1021.72 1021.60 1021.32 1021.16 1021.00 1020.52 1019.80 1018.84 1018.28 1017.84 1017.52 1017.36 1017.28 1017.36 1017.24 1017.00 1016.68 1016.52 1016.52 1016.52 1016.40 1016.16
1025.84 1025.76 1025.64 1025.56 1025.36 1025.12 1025.04 1024.92 1024.72 1024.48 1024.20 1024.04 1023.84 1023.60 1023.32 1023.00 1022.84 1022.60 1022.32 1022.08 1021.92 1021.76 1021.56 1021.44 1021.20 1020.76 1020.28 1019.24 1018.68 1018.24 1017.84 1017.56 1017.44 1017.32 1017.12 1016.80 1016.80 1016.96 1016.88 1016.76 1016.64 1016.48
Wind_Speed
8 6 6 5 4 4 4 5 4 5 5 5 6 6 7 6 6 8 8 8 9 10 10 10 10 10 9 10 10 10 10 11 11 10 11 12 12 13 13 14 14 13
10 9 7 6 5 5 5 4 5 4 5 5 5 5 5 6 7 7 8 8 9 10 10 10 10 10 10 9 10 10 10 10 12 8 11 14 12 13 15 15 14 14
11 10 10 9 8 8 7 6 5 5 5 5 5 5 6 5 6 6 7 7 8 9 9 9 10 10 10 10 10 10 11 11 12 10 11 13 11 12 13 12 12 14
12 11 10 10 9 9 8 7 7 6 5 5 6 5 5 5 6 7 6 8 7 8 8 8 9 9 9 10 10 9 10 11 11 10 11 10 10 12 12 11 12 12
12 12 11 10 10 9 9 9 10 9 8 7 7 7 6 6 6 6 6 6 7 8 7 8 8 8 8 9 9 10 10 10 10 10 11 11 11 10 10 10 12 13
12 11 11 11 11 10 10 10 10 9 9 9 9 7 7 7 6 7 7 7 6 7 7 7 8 7 8 9 9 10 10 9 9 10 12 13 11 10 9 10 12 12
12 12 13 11 12 11 11 10 10 9 9 8 7 8 8 8 8 8 7 7 7 7 6 7 7 7 6 7 9 10 9 9 9 10 12 12 10 11 10 10 11 13
12 11 10 10 11 10 10 9 9 9 10 9 9 9 9 9 9 8 7 8 7 7 7 6 7 7 7 7 8 9 9 7 8 10 11 12 10 11 11 9 12 14
10 10 10 10 10 9 10 10 9 9 9 9 9 9 8 8 9 8 9 8 8 7 7 6 6 6 6 7 8 9 9 9 9 10 11 11 11 12 13 12 14 13
10 10 11 11 11 10 12 11 10 9 9 9 9 8 9 9 9 9 9 9 8 8 8 8 8 7 6 6 8 9 9 11 11 11 12 13 14 14 13 12 13 13
11 11 11 11 11 10 12 12 11 10 9 10 10 10 9 9 9 9 8 9 8 9 9 8 8 8 8 8 7 7 9 11 11 10 11 12 13 13 12 12 12 14
11 11 11 11 10 10 10 10 10 10 10 9 10 10 10 9 9 9 8 9 9 8 8 8 8 7 7 7 8 8 8 8 8 9 10 11 11 12 12 11 12 14
12 12 11 11 11 11 10 10 10 11 10 10 10 9 9 9 9 9 9 8 9 8 8 8 8 7 7 7 7 7 6 7 7 7 8 9 10 11 11 11 12 12
11 11 11 11 11 10 10 10 10 11 10 10 10 10 9 10 9 9 9 8 8 8 8 8 8 7 7 7 7 7 7 7 6 6 7 8 9 9 10 10 11 11
11 10 10 10 11 10 10 10 11 11 10 10 10 9 8 9 9 9 9 9 8 8 7 7 6 6 5 7 8 8 7 7 7 7 7 8 8 9 9 9 9 9
10 10 10 10 11 10 9 10 10 10 10 10 10 10 9 9 9 9 8 8 8 9 8 7 6 5 9 15 12 9 7 6 6 6 6 7 8 8 8 8 9 9
9 9 10 10 10 9 9 10 11 10 10 10 10 9 10 10 9 10 9 9 9 9 9 8 7 7 16 15 14 14 9 7 7 7 6 6 6 7 7 8 7 8
8 9 9 10 9 9 9 9 9 9 8 8 8 9 9 8 8 7 7 7 7 7 7 7 7 12 16 15 14 14 12 8 6 7 7 7 7 8 7 8 8 7
8 9 9 9 9 9 9 9 7 6 6 6 6 7 6 6 7 7 6 5 5 6 6 6 6 13 15 15 15 14 14 11 7 8 7 7 7 8 8 8 8 8
8 9 9 9 9 9 8 8 6 6 5 5 5 6 6 6 5 6 6 5 5 5 5 5 6 11 15 15 15 15 13 11 6 7 6 6 6 6 7 7 8 8
8 9 8 9 9 9 8 8 7 6 6 5 5 6 6 6 6 5 6 6 5 5 5 6 6 15 16 16 15 16 14 9 4 4 4 5 5 5 6 7 7 8
8 8 9 9 9 9 8 9 8 8 7 7 6 5 5 4 4 4 6 7 7 6 6 7 8 17 17 17 17 16 15 5 5 4 5 6 6 6 7 6 7 7
7 6 7 9 9 9 9 9 9 9 8 6 7 7 7 6 6 6 5 5 7 6 7 6 7 13 18 17 16 17 12 6 5 5 5 6 6 6 6 6 6 8
7 6 6 8 8 8 8 8 7 7 6 6 6 7 7 6 6 6 5 4 6 7 7 6 8 12 17 17 17 17 14 8 5 6 5 5 5 5 5 6 8 15
4 5 5 6 6 7 5 7 8 8 7 6 5 5 6 5 6 5 5 4 4 6 9 8 7 9 16 17 18 17 13 8 7 6 6 6 7 5 5 6 7 9
4 5 5 5 7 6 5 5 6 6 7 7 5 5 6 5 5 4 6 5 5 5 6 5 6 7 11 19 18 18 18 11 7 8 8 7 5 6 7 6 6 7
Wind_Direction
345 339 320 316 302 280 271 270 253 249 248 244 241 242 233 238 224 217 217 217 217 218 217 218 215 216 216 216 214 217 218 219 220 216 217 217 222 218 220 220 217 223
6 357 344 336 326 320 311 299 293 277 269 255 254 257 257 251 239 226 222 219 218 220 218 219 216 216 214 214 212 215 220 217 222 205 217 219 221 217 225 222 221 223
13 11 11 7 355 342 334 328 318 306 294 293 288 269 266 255 259 242 238 229 226 224 221 220 220 217 216 216 213 217 221 217 222 212 216 221 217 218 223 219 224 222
12 12 8 7 5 1 353 353 352 345 333 323 313 300 282 274 265 252 246 240 240 236 227 222 222 220 217 218 217 221 220 221 221 212 220 225 218 220 223 217 222 225
9 9 7 6 2 4 5 9 6 1 356 343 332 326 315 303 288 275 256 248 239 243 235 229 224 223 219 220 216 226 222 224 220 213 222 225 219 214 221 215 220 224
8 8 5 4 360 4 4 6 2 1 356 355 347 338 334 323 311 292 282 271 254 245 243 239 231 224 221 222 221 225 225 223 220 212 224 228 224 215 218 214 220 227
3 4 2 359 358 359 3 358 356 354 353 348 340 348 349 342 339 327 309 292 277 261 251 245 237 236 222 223 224 229 227 225 225 216 225 230 224 223 218 218 221 229
0 360 359 356 356 352 360 352 353 350 345 347 345 344 349 341 341 338 333 325 310 287 272 259 250 241 234 223 229 232 233 227 228 223 226 232 224 230 223 219 227 232
353 353 353 352 353 351 353 351 350 346 345 346 341 341 342 341 339 338 336 334 333 329 316 295 273 255 244 235 235 235 235 232 229 227 228 232 230 232 232 226 230 232
351 349 349 352 353 350 349 347 347 344 341 342 337 339 338 337 338 338 337 335 337 337 337 332 325 310 281 253 247 243 240 242 239 235 235 237 238 237 235 230 230 234
349 349 347 348 348 345 344 343 343 341 339 339 338 338 338 336 335 337 334 336 337 335 333 332 329 327 319 305 283 260 251 250 245 241 238 239 239 238 236 232 231 233
348 345 344 344 343 341 340 340 339 339 338 338 339 338 336 336 335 334 332 329 332 328 328 324 326 326 322 318 318 312 294 272 261 251 247 245 244 242 239 235 234 235
345 343 341 340 340 338 337 339 340 338 339 338 338 335 335 335 333 331 328 329 326 329 327 327 325 322 321 321 319 315 308 300 292 279 267 259 253 250 246 242 239 239
341 337 337 336 334 332 335 339 339 338 338 337 336 337 336 335 333 333 329 332 330 332 329 328 326 324 323 321 315 314 305 297 294 289 285 277 271 264 259 253 248 246
333 333 331 332 330 329 335 339 339 337 337 336 336 335 334 331 333 333 335 335 335 336 332 330 328 324 325 321 314 305 298 296 293 287 285 284 279 276 271 266 261 255
331 329 330 329 327 329 333 338 337 337 336 335 334 332 331 332 334 334 338 338 339 338 337 334 332 326 319 320 322 317 308 304 292 283 274 276 278 279 277 270 265 263
332 331 331 327 325 325 330 335 337 335 334 333 332 331 333 336 334 336 342 340 344 341 337 335 332 322 325 331 331 329 324 314 307 303 290 286 285 284 282 282 273 267
332 330 330 325 322 322 325 330 331 328 329 331 327 329 332 332 328 334 333 335 340 335 331 331 327 320 332 335 336 334 329 320 331 349 349 344 341 335 322 312 302 289
332 333 328 321 318 318 320 328 326 321 322 324 319 319 323 322 325 327 324 327 332 331 325 324 323 320 337 339 340 339 353 25 14 2 357 353 353 346 340 336 332 321
332 333 328 322 318 316 320 326 322 317 317 312 312 320 321 319 319 325 322 325 330 328 315 311 322 319 341 341 342 339 359 29 15 2 356 351 352 355 347 345 340 336
333 330 326 323 320 320 324 327 323 317 317 316 321 321 321 319 323 324 324 326 328 336 322 325 318 333 342 341 340 337 351 33 10 360 352 344 345 349 346 340 341 337
329 325 323 324 321 323 327 328 326 324 322 322 325 320 317 316 313 326 330 331 327 339 338 330 329 340 341 341 339 336 344 21 5 356 351 339 336 342 338 335 337 334
325 319 319 322 321 323 325 325 324 323 321 326 327 326 327 330 327 327 328 327 329 339 339 329 331 337 342 343 343 342 346 5 359 358 343 335 327 328 326 333 337 338
314 313 310 316 316 317 319 319 316 313 314 328 328 325 327 323 321 322 326 331 331 337 334 338 331 332 342 345 350 348 349 354 359 357 335 322 317 319 328 342 344 345
302 302 306 306 304 308 315 314 318 319 315 323 324 323 315 314 321 327 322 329 337 333 339 345 329 332 341 348 351 350 349 347 349 350 335 321 322 334 358 350 340 341
302 301 303 304 304 307 310 310 313 313 322 326 323 327 323 321 322 323 323 324 333 334 337 339 337 335 339 349 350 349 346 345 346 338 334 323 0 1 347 346 340 331